EW8518 Weather Reports


Display with metric or nautical units.
time (UTC)temp
F
wind
direction
speed
MPH
gust
MPH
rain 1hr
in
rain 24hr
in
rain mn
in
humidity
%
barometer
mb
20260508014528 56 126 2.0 4.0 0.00 0.00 0.00 92 1009.6
20260508013028 56 126 1.0 3.0 0.00 0.00 0.00 92 1009.6
20260508011513 56 126 2.0 4.0 0.00 0.00 0.00 92 1009.7
20260508010011 56 126 2.0 5.0 0.00 0.00 0.00 92 1009.8
20260508004550 56 126 2.0 4.0 0.00 0.00 0.00 92 1009.9
20260508003049 56 126 2.0 5.0 0.00 0.00 0.00 92 1010.0
20260508001557 56 126 1.0 5.0 0.00 0.00 0.00 92 1010.1
20260508000031 55 126 2.0 7.0 0.00 0.00 0.00 92 1010.3
20260507234516 55 126 2.0 5.0 0.00 0.00 0.00 92 1010.4
20260507233016 55 126 2.0 5.0 0.00 0.00 0.00 91 1010.7
20260507231556 55 126 3.0 5.0 0.00 0.00 0.00 91 1010.9
20260507230053 56 126 2.0 7.0 0.00 0.00 0.00 91 1011.0
20260507224542 56 126 2.0 4.0 0.00 0.00 0.00 91 1011.0
20260507223036 56 126 3.0 5.0 0.00 0.00 0.00 91 1011.1
20260507221516 56 126 2.0 4.0 0.00 0.00 0.00 90 1011.0
20260507220030 56 126 1.0 5.0 0.00 0.00 0.00 90 1010.9
20260507214616 56 126 2.0 5.0 0.00 0.00 0.00 90 1011.1
20260507213057 56 126 2.0 5.0 0.00 0.00 0.00 90 1010.9
20260507211556 56 126 3.0 7.0 0.00 0.00 0.00 89 1010.9
20260507210038 56 126 1.0 4.0 0.00 0.00 0.00 89 1011.0
20260507204543 57 126 2.0 5.0 0.00 0.00 0.00 88 1010.9
20260507203020 57 126 1.0 4.0 0.00 0.00 0.00 87 1010.8
20260507201518 58 126 1.0 4.0 0.00 0.00 0.00 86 1010.8
20260507200109 59 126 1.0 3.0 0.00 0.00 0.00 85 1010.7
20260507194559 60 126 2.0 4.0 0.00 0.00 0.00 85 1010.6
20260507193042 61 126 1.0 4.0 0.00 0.00 0.00 83 1010.6
20260507191545 61 126 1.0 5.0 0.00 0.00 0.00 82 1010.3
20260507190023 63 126 1.0 5.0 0.00 0.00 0.00 80 1010.4
20260507184522 63 126 0.0 4.0 0.00 0.00 0.00 79 1010.3
20260507183005 63 126 0.0 3.0 0.00 0.00 0.00 78 1010.4
20260507181504 64 126 0.0 3.0 0.00 0.00 0.00 78 1010.5
20260507180046 64 126 1.0 5.0 0.00 0.00 0.00 77 1010.4
20260507174553 65 126 2.0 7.0 0.00 0.00 0.00 75 1010.4
20260507173033 65 126 5.0 9.0 0.00 0.00 0.00 74 1010.4
20260507171533 66 124 4.0 8.0 0.00 0.00 0.00 73 1010.3
20260507170010 67 124 5.0 10.0 0.00 0.00 0.00 70 1010.2
20260507164510 67 121 6.0 12.0 0.00 0.00 0.00 69 1010.1
20260507163055 67 119 7.0 14.0 0.00 0.00 0.00 69 1010.2
20260507161551 68 130 5.0 10.0 0.00 0.00 0.00 69 1010.2
20260507160035 67 134 7.0 12.0 0.00 0.00 0.00 70 1010.3
20260507154533 68 119 6.0 14.0 0.00 0.00 0.00 69 1010.2
20260507153019 67 134 8.0 14.0 0.00 0.00 0.00 70 1010.4
20260507151516 67 128 7.0 15.0 0.00 0.00 0.00 71 1010.3
20260507150058 68 123 8.0 15.0 0.00 0.00 0.00 71 1010.4
20260507144557 68 132 8.0 15.0 0.00 0.00 0.00 71 1010.3
20260507143042 68 131 9.0 14.0 0.00 0.00 0.00 68 1010.5
20260507141539 68 115 9.0 14.0 0.00 0.00 0.00 68 1010.4
20260507140022 69 115 4.0 14.0 0.00 0.00 0.00 69 1010.5
20260507134522 69 109 6.0 13.0 0.00 0.00 0.00 66 1010.7
20260507133004 69 119 9.0 15.0 0.00 0.00 0.00 66 1011.0
20260507131509 69 111 5.0 15.0 0.00 0.00 0.00 65 1011.0
20260507130103 70 132 8.0 13.0 0.00 0.00 0.00 65 1011.3
20260507124551 69 129 7.0 15.0 0.00 0.00 0.00 68 1011.2
20260507123028 69 112 10.0 17.0 0.00 0.00 0.00 66 1011.3
20260507121528 68 125 8.0 17.0 0.00 0.00 0.00 66 1011.3
20260507120023 69 121 8.0 16.0 0.00 0.00 0.00 65 1011.2
20260507114509 69 130 6.0 14.0 0.00 0.00 0.00 70 1011.2
20260507113052 68 126 8.0 15.0 0.00 0.00 0.00 66 1011.3
20260507111551 69 121 7.0 13.0 0.00 0.00 0.00 64 1011.5
20260507110033 69 132 9.0 17.0 0.00 0.00 0.00 62 1011.7
20260507104533 69 133 10.0 17.0 0.00 0.00 0.00 65 1011.6
20260507103015 69 121 8.0 16.0 0.00 0.00 0.00 65 1011.7
20260507101516 69 126 5.0 14.0 0.00 0.00 0.00 65 1011.7
20260507100057 68 128 8.0 15.0 0.00 0.00 0.00 63 1011.8
20260507094556 68 125 6.0 13.0 0.00 0.00 0.00 66 1011.7
20260507093040 70 36 2.0 6.0 0.00 0.00 0.00 65 1011.7
20260507091537 70 22 3.0 8.0 0.00 0.00 0.00 66 1011.6
20260507090022 71 19 4.0 9.0 0.00 0.00 0.00 63 1011.4
20260507084517 72 242 1.0 7.0 0.00 0.00 0.00 61 1011.3
20260507083058 70 235 1.0 8.0 0.00 0.00 0.00 48 1011.1
20260507081600 70 163 1.0 8.0 0.00 0.00 0.00 49 1011.2
20260507080034 69 165 3.0 7.0 0.00 0.00 0.00 52 1011.2
20260507074551 69 236 2.0 8.0 0.00 0.00 0.00 53 1011.3
20260507073012 68 186 1.0 7.0 0.00 0.00 0.00 58 1011.3
20260507071508 66 208 1.0 10.0 0.00 0.00 0.00 63 1011.2
20260507070049 66 204 5.0 9.0 0.00 0.00 0.00 67 1011.2
20260507064546 65 225 1.0 10.0 0.00 0.00 0.00 70 1011.1
20260507063034 65 240 2.0 9.0 0.00 0.00 0.00 71 1011.1
20260507061533 65 232 1.0 5.0 0.00 0.00 0.00 72 1011.0
20260507060029 64 232 1.0 6.0 0.00 0.00 0.00 74 1011.0
20260507054526 64 235 1.0 5.0 0.00 0.00 0.00 75 1010.8
20260507053021 62 236 0.0 2.0 0.00 0.00 0.00 79 1010.7
20260507051518 60 236 0.0 3.0 0.00 0.00 0.00 83 1010.5
20260507050025 58 235 0.0 3.0 0.00 0.00 0.00 84 1010.3
20260507044516 57 235 0.0 2.0 0.00 0.00 0.00 83 1010.3
20260507043056 57 235 0.0 1.0 0.00 0.00 0.00 83 1010.2
20260507041602 57 235 0.0 0.0 0.00 0.00 0.00 83 1010.2
20260507040044 57 235 0.0 2.0 0.00 0.00 0.00 82 1010.1
20260507034542 58 235 0.0 3.0 0.00 0.00 0.00 81 1010.2
20260507033042 58 235 2.0 5.0 0.00 0.00 0.00 82 1010.2
20260507031546 58 235 0.0 2.0 0.00 0.00 0.00 81 1010.2
20260507030047 59 235 0.0 2.0 0.00 0.00 0.00 80 1010.3
20260507024541 59 235 1.0 4.0 0.00 0.00 0.00 80 1010.1
20260507023033 59 236 0.0 7.0 0.00 0.00 0.00 80 1010.2
20260507021532 60 248 2.0 8.0 0.00 0.00 0.00 81 1010.1
20260507020010 60 259 4.0 13.0 0.00 0.00 0.00 81 1010.0